Regional Weather Roundup
Issued by NWS Albany, NY

Home | Current Version | Previous Version | Text Only | Print | Product List | Glossary On
Versions: 1 2 3 4 5 6 7 8 9 10 11 12 13 14 15 16 17 18 19 20 21 22 23 24 25 26 27
000
ASUS41 KALY 182010
RWRALY

NEW YORK STATE HOURLY WEATHER ROUNDUP
NATIONAL WEATHER SERVICE ALBANY NY
300 PM EST WED JAN 18 2017

NOTE: "FAIR" INDICATES FEW OR NO CLOUDS BELOW 12,000 FEET WITH NO
SIGNIFICANT WEATHER AND/OR NO OBSTRUCTIONS TO VISIBILITY.

NYZ032-033-038>043-046>054-057>066-NYZ062>081-082-084-182100-
EAST


CITY           SKY/WX    TMP DP  RH WIND       PRES   REMARKS
ALBANY         DRZL/FOG  36  34  92 E3        29.97S VSB 1
GLENS FALLS    CLOUDY    36  33  89 SE3       29.96S FOG
POUGHKEEPSIE   CLOUDY    39  36  89 CALM      29.95S
NEWBURGH       CLOUDY    39  39 100 NE6       29.96R WCI  35
MONTGOMERY     CLOUDY    40  37  89 N5        29.94F
WHITE PLAINS   CLOUDY    39  36  89 N8        29.94R FOG     WCI  33
ISLIP          LGT RAIN  39  38  96 N12       29.94R FOG     WCI  32
NEW YORK CITY  CLOUDY    42  37  82 N9        29.96R
CENTRAL PARK   CLOUDY    40  37  89 N7        29.98R
$$

NYZ005>009-017-018-044>046-055-056-182100-
CENTRAL


CITY           SKY/WX    TMP DP  RH WIND       PRES   REMARKS
FULTON         CLOUDY    37  36  96 W5        29.96R FOG     WCI  33
SYRACUSE       DRIZZLE   37  37 100 W7        29.96R FOG     WCI  32
ROME           CLOUDY    37  37 100 W7        29.97R FOG     WCI  32
ELMIRA         CLOUDY    42  34  73 W7        29.95R
BINGHAMTON     FOG       35  35 100 NW3       29.93R VSB 1
MONTICELLO     CLOUDY    36  34  93 CALM      29.93S
$$

NYZ026>034-041>043-087-182100-
NORTH


CITY           SKY/WX    TMP DP  RH WIND       PRES   REMARKS
WATERTOWN      CLOUDY    34  34 100 W8        29.95R FOG     WCI  27
FORT DRUM      NOT AVBL
OGDENSBURG     CLOUDY    32  31  99 W3        29.94R FOG
MASSENA        CLOUDY    32  31  96 W8        29.94R FOG     WCI  25
SARANAC LAKE   CLOUDY    34  31  88 SW10      29.85R WCI  26
PLATTSBURGH    CLOUDY    36  32  85 S12       29.93R WCI  28
$$

NYZ001>004-010>016-019>021-085-182100-
WEST


CITY           SKY/WX    TMP DP  RH WIND       PRES   REMARKS
NIAGARA FALLS  CLOUDY    39  34  82 SW12      29.98R WCI  32
BUFFALO        DRIZZLE   36  34  92 SW17G23   29.99R FOG     WCI  26
DUNKIRK        MIX PCPN  35  34  96 SW15G24   30.03R FOG     WCI  25
JAMESTOWN      CLOUDY    34  30  86 W16       29.99R WCI  23
WELLSVILLE     CLOUDY    36  33  89 W12       29.95R WCI  28
ROCHESTER      CLOUDY    39  35  86 W12       29.97R WCI  32
PENN YAN       CLOUDY    40  32  73 W6        29.96R
$$

             KEY
       WCI = WIND CHILL INDEX
       VSB = VISIBILITY
       HX  = HEAT INDEX
$$




USA.gov is the U.S. government's official web portal to all federal, state and local government web resources and services.